Flag for Afghanistan Weather past 2 weeks in Herat, Afghanistan

Now
86 °F

Clear.


Feels Like: 83 °F
Forecast: 62 / 96 °F
Wind: 8 mph from South

Location: Herat Airport

Current Time: Sep 22, 2014 at 9:31:04 PM

Latest Report: Sep 22, 2014 at 8:24 PM


Visibility: 5 mi

Pressure: 29.89 "Hg

Humidity: 9%

Dew point: 21 °F

Location of HeratLocation

Historic Weather in Herat — Graph

°F

Herat temperature yesterday

Maximum temperature yesterday: 95 °F (at 3:24 PM)
Minimum temperature yesterday: 59 °F (at 4:24 AM)
Average temperature yesterday: 76 °F

Past Weeks' High & Low Weather Summary

 TemperatureHumidityPressure
High97 °F (Sep 15, 2:24 PM)43% (Sep 18, 6:24 AM)30.15 "Hg (Sep 18, 6:24 AM)
Low59 °F (Sep 21, 4:24 AM)5% (Sep 16, 2:25 PM)29.80 "Hg (Sep 16, 3:24 PM)
Average78 °F14%29.95 "Hg
* Reported Sep 7 8:24 PM — Sep 22 8:24 PM, Herat, Weather by CustomWeather, © 2014

Note: Actual official high and low records may vary slightly from our data, if they occured in-between our weather recording intervals... More about our weather records

Advertising

Herat weather history for previous 24 hours

 ConditionsComfort  
Time TempWeatherWind HumidityBarometerVisibility
8:24 PM
Sep 22
86 °FClear.8 mph9%29.89 "Hg5 mi
7:25 PM86 °FClear.3 mph10%29.89 "Hg5 mi
6:25 PM90 °FClear.5 mph9%29.86 "Hg6 mi
5:24 PM95 °FSunny.7 mph7%29.86 "Hg10 mi
4:24 PM97 °FClear.6 mph6%29.86 "Hg6 mi
3:25 PM97 °FClear.3 mph7%29.86 "Hg5 mi
2:25 PM97 °FClear.9 mph7%29.89 "Hg5 mi
12:24 PM93 °FSunny.7 mph8%29.92 "Hg10 mi
11:24 AM90 °FClear.6 mph10%29.95 "Hg4 mi
10:25 AM84 °FClear.3 mph11%29.98 "Hg4 mi
9:25 AM77 °FSunny.2 mph12%29.98 "Hg10 mi
8:24 AM72 °FSunny.3 mph14%29.98 "Hg10 mi
7:24 AM63 °FSunny.5 mph14%29.95 "Hg10 mi
6:24 AM61 °FClear.3 mph16%29.95 "Hg10 mi
5:24 AM63 °FClear.3 mph17%29.92 "Hg10 mi
4:24 AM63 °FClear.1 mph16%29.92 "Hg10 mi
3:24 AM64 °FClear.2 mph14%29.92 "Hg10 mi
2:24 AM64 °FClear.5 mph14%29.92 "Hg10 mi
1:24 AM66 °FClear.3 mph14%29.92 "Hg10 mi
12:24 AM72 °FClear.2 mph13%29.95 "Hg10 mi
11:24 PM
Sep 21
73 °FClear.5 mph12%29.92 "Hg10 mi
10:25 PM75 °FClear.7 mph12%29.92 "Hg10 mi
9:25 PM75 °FClear.7 mph11%29.92 "Hg10 mi
Weather by CustomWeather, © 2014

See weather overviewHow to use our weather pages